Flag for Australia Weather past 2 weeks in Perth, Western Australia, Australia

Now
64 °F

Scattered clouds.


Feels Like: 64 °F
Forecast: 56 / 62 °F
Wind: 12 mph from North

Location: Belmont Perth Airport

Current Time: Aug 29, 2014 at 9:12:47 AM

Latest Report: Aug 29, 2014 at 8:30 AM


Visibility: N/A

Pressure: 29.92 "Hg

Humidity: 88%

Dew point: 61 °F

Location of PerthLocation

Historic Weather in Perth — Graph

°F

Perth temperature yesterday

Maximum temperature yesterday: 77 °F (at 1:00 PM)
Minimum temperature yesterday: 52 °F (at 1:30 AM)
Average temperature yesterday: 62 °F

Past Weeks' High & Low Weather Summary

 TemperatureHumidityPressure
High79 °F (Aug 17, 1:00 PM)100% (Aug 18, 2:00 AM)30.36 "Hg (Aug 18, 2:00 AM)
Low45 °F (Aug 24, 3:00 AM)24% (Aug 17, 1:30 PM)29.77 "Hg (Aug 21, 5:30 AM)
Average60 °F73%30.09 "Hg
* Reported Aug 14 7:00 AM — Aug 29 7:30 AM, Perth, Weather by CustomWeather, © 2014

Note: Actual official high and low records may vary slightly from our data, if they occured in-between our weather recording intervals... More about our weather records

Advertising

Perth weather history for previous 24 hours

 ConditionsComfort  
Time TempWeatherWind HumidityBarometerVisibility
7:30 AM
Aug 29
61 °FScattered clouds.13 mph94%29.92 "HgN/A
7:00 AM59 °FBroken clouds.10 mph100%29.92 "HgN/A
6:30 AM59 °FBroken clouds.10 mph100%29.92 "HgN/A
6:00 AM59 °FScattered clouds.12 mph94%29.92 "HgN/A
5:30 AM57 °FPassing clouds.9 mph100%29.92 "HgN/A
5:00 AM57 °FPassing clouds.10 mph100%29.92 "HgN/A
4:30 AM57 °FPassing clouds.9 mph100%29.92 "HgN/A
4:00 AM57 °FPassing clouds.8 mph94%29.92 "HgN/A
3:30 AM57 °FPassing clouds.7 mph94%29.92 "HgN/A
3:00 AM57 °FPassing clouds.7 mph94%29.92 "HgN/A
2:30 AM57 °FPassing clouds.9 mph88%29.92 "HgN/A
2:00 AM57 °FClear.9 mph88%29.92 "Hg10 mi
1:30 AM57 °FClear.8 mph82%29.92 "Hg10 mi
1:00 AM57 °FClear.7 mph82%29.95 "Hg10 mi
12:30 AM57 °FClear.7 mph82%29.95 "Hg10 mi
12:00 AM57 °FClear.7 mph88%29.95 "Hg10 mi
11:00 PM
Aug 28
59 °FClear.8 mph82%29.95 "Hg10 mi
10:30 PM59 °FClear.10 mph82%29.98 "Hg10 mi
10:00 PM61 °FPassing clouds.9 mph77%29.98 "HgN/A
9:30 PM61 °FPassing clouds.8 mph83%29.98 "HgN/A
9:00 PM63 °FPassing clouds.7 mph77%29.98 "HgN/A
8:30 PM63 °FPassing clouds.8 mph83%29.98 "HgN/A
8:00 PM61 °FClear.8 mph83%29.98 "Hg10 mi
7:30 PM63 °FClear.7 mph83%29.98 "Hg10 mi
7:00 PM66 °FClear.8 mph73%29.98 "Hg10 mi
6:00 PM68 °FClear.10 mph64%29.95 "Hg10 mi
5:30 PM68 °FClear.13 mph56%29.95 "Hg10 mi
5:00 PM70 °FClear.14 mph53%29.95 "Hg10 mi
4:30 PM72 °FSunny.16 mph44%29.95 "Hg10 mi
4:00 PM72 °FSunny.16 mph41%29.95 "Hg10 mi
3:30 PM73 °FSunny.17 mph36%29.95 "Hg10 mi
3:00 PM73 °FSunny.17 mph33%29.95 "Hg10 mi
2:00 PM75 °FSunny.16 mph27%29.95 "Hg10 mi
1:30 PM75 °FSunny.17 mph25%29.95 "Hg10 mi
1:00 PM77 °FSunny.15 mph32%29.98 "Hg10 mi
12:30 PM73 °FSunny.12 mph33%29.98 "Hg10 mi
12:00 PM70 °FSunny.13 mph50%29.98 "Hg10 mi
11:30 AM70 °FSunny.8 mph46%30.01 "Hg10 mi
11:00 AM68 °FSunny.8 mph53%30.01 "Hg10 mi
10:30 AM66 °FSunny.10 mph56%30.01 "Hg10 mi
10:00 AM63 °FSunny.8 mph64%30.01 "Hg10 mi
9:30 AM61 °FSunny.7 mph68%30.04 "Hg10 mi
9:00 AM59 °FSunny.8 mph72%30.04 "Hg10 mi
Weather by CustomWeather, © 2014

See weather overviewHow to use our weather pages